Location: Eschertshofen
(49.3064°N, 11.5756°E)
Time: 17:51:44
(UTC+00:00)

IRIDIUM 105 - Pass Details

Date: 30 January 2022
Orbit: 776 x 779 km, 86.4° (Epoch: 25 May)

Event Time Altitude Azimuth Distance (km) Brightness Sun altitude
Rises 16:56:35 0° 242° (WSW) 3,254 ? -8.4°
Reaches altitude 10° 17:00:39 10° 274° (W) 2,332 ? -9.0°
Maximum altitude 17:02:33 12° 295° (WNW) 2,203 ? -9.3°
Drops below altitude 10° 17:04:29 10° 317° (NW) 2,337 ? -9.6°
Sets 17:08:34 0° 349° (N) 3,271 ? -10.3°
